Weather History for KBVE - February, 2014

Change the Weather History Date:

Thursday, February 6, 2014

  Actual Average Record
Temperature  
Mean Temperature 41 °F -  
Max Temperature 43 °F - - ()
Min Temperature 39 °F - - ()
Degree Days  
Heating Degree Days 24    
Moisture  
Dew Point 34 °F    
Average Humidity 75    
Maximum Humidity 82    
Minimum Humidity 67    
Precipitation  
Precipitation 0.00 in - - ()
Sea Level Pressure  
Sea Level Pressure 30.29 in    
Wind  
Wind Speed 13 mph (NNE)    
Max Wind Speed 16 mph    
Max Gust Speed 25 mph    
Visibility 9 miles    
Events Rain    
T = Trace of Precipitation, MM = Missing Value Source: NWS Daily Summary

Daily Weather History Graph

Daily Weather History Graph

Search for Another Location

Airport or City:

Trip Planner

Search our weather history database for the weather conditions in past years. The results will help you decide how hot, cold, wet, or windy it might be!

Date:

Astronomy

Feb. 06, 2014 Rise Set
Actual Time 6:43 AM CST 5:40 PM CST
Civil Twilight 6:19 AM CST 6:04 PM CST
Nautical Twilight 5:50 AM CST 6:33 PM CST
Astronomical Twilight 5:22 AM CST 7:00 PM CST
Moon 11:13 AM CST (2/6) No Moon Set
Length of Visible Light 11h 45m
Length of Day
10h 56m
Waxing Crescent, 49% of the Moon is Illuminated
Feb 6
Waxing Crescent
Feb 6
First Quarter
Feb 14
Full
Feb 22
Last Quarter
Mar 1
New

Hourly Weather History & Observations

Time (CST) Temp. Windchill Dew Point Humidity Pressure Visibility Wind Dir Wind Speed Gust Speed Precip Events Conditions
12:51 AM 43.0 °F 36.8 °F 35.1 °F 74% 30.26 in 10.0 mi North 11.5 mph 24.2 mph N/A   Overcast
1:51 AM 43.0 °F 35.7 °F 34.0 °F 71% 30.24 in 10.0 mi NNE 15.0 mph 24.2 mph N/A   Overcast
1:59 AM 43.0 °F 35.4 °F 34.0 °F 71% 30.24 in 10.0 mi NNE 16.1 mph 25.3 mph N/A   Overcast
2:44 AM 43.0 °F 35.4 °F 34.0 °F 71% 30.24 in 10.0 mi NNE 16.1 mph 24.2 mph N/A   Overcast
2:51 AM 43.0 °F 36.0 °F 35.1 °F 74% 30.25 in 10.0 mi NNE 13.8 mph 21.9 mph N/A   Overcast
3:51 AM 43.0 °F 36.4 °F 34.0 °F 71% 30.26 in 10.0 mi North 12.7 mph 23.0 mph N/A   Overcast
4:51 AM 42.1 °F 34.9 °F 34.0 °F 73% 30.26 in 10.0 mi NE 13.8 mph 21.9 mph N/A   Overcast
5:51 AM 42.1 °F 35.2 °F 34.0 °F 73% 30.26 in 10.0 mi NNE 12.7 mph 21.9 mph N/A   Mostly Cloudy
6:23 AM 42.1 °F 36.1 °F 34.0 °F 73% 30.25 in 10.0 mi NNE 10.4 mph 21.9 mph N/A   Overcast
6:35 AM 42.1 °F 34.2 °F 34.0 °F 73% 30.26 in 10.0 mi NNE 16.1 mph 21.9 mph N/A   Overcast
6:51 AM 42.1 °F 34.9 °F 34.0 °F 73% 30.27 in 10.0 mi NNE 13.8 mph 21.9 mph N/A   Overcast
7:51 AM 42.1 °F 35.2 °F 34.0 °F 73% 30.28 in 10.0 mi NNE 12.7 mph 20.7 mph N/A   Overcast
8:51 AM 41.0 °F 34.7 °F 34.0 °F 76% 30.32 in 10.0 mi North 10.4 mph 19.6 mph N/A   Overcast
9:51 AM 41.0 °F 34.3 °F 33.1 °F 73% 30.31 in 10.0 mi NNE 11.5 mph 24.2 mph N/A   Overcast
10:51 AM 41.0 °F 35.2 °F 33.1 °F 73% 30.31 in 10.0 mi NNE 9.2 mph 19.6 mph N/A   Overcast
11:51 AM 39.9 °F 32.1 °F 32.0 °F 73% 30.36 in 9.0 mi NNW 13.8 mph - N/A   Overcast
12:51 PM 39.0 °F 31.0 °F 30.9 °F 73% 30.34 in 9.0 mi NNW 13.8 mph - N/A   Overcast
1:25 PM 39.0 °F 32.3 °F 30.0 °F 70% 30.31 in 8.0 mi North 10.4 mph 20.7 mph N/A   Overcast
1:51 PM 39.0 °F 31.4 °F 28.9 °F 67% 30.31 in 9.0 mi North 12.7 mph 21.9 mph N/A   Overcast
2:51 PM 39.0 °F 31.8 °F 30.0 °F 70% 30.32 in 8.0 mi North 11.5 mph 20.7 mph 0.00 in Rain Light Rain
3:51 PM 39.0 °F 32.3 °F 32.0 °F 76% 30.30 in 7.0 mi NNE 10.4 mph - 0.00 in Rain Light Rain
4:51 PM 39.0 °F 31.8 °F 33.1 °F 79% 30.31 in 7.0 mi NNE 11.5 mph 18.4 mph 0.00 in   Overcast
5:46 PM 39.2 °F 33.0 °F 33.8 °F 81% 30.31 in 7.0 mi North 9.2 mph 18.4 mph N/A   Overcast
5:51 PM 39.9 °F 33.9 °F 34.0 °F 79% 30.32 in 8.0 mi North 9.2 mph - N/A   Overcast
6:23 PM 41.0 °F 35.2 °F 34.0 °F 76% 30.32 in 8.0 mi North 9.2 mph - N/A   Overcast
6:51 PM 41.0 °F 33.9 °F 35.1 °F 79% 30.31 in 8.0 mi NNE 12.7 mph 20.7 mph N/A   Overcast
7:40 PM 41.0 °F 34.7 °F 35.1 °F 79% 30.31 in 8.0 mi NNE 10.4 mph 19.6 mph N/A   Mostly Cloudy
7:51 PM 41.0 °F 34.3 °F 35.1 °F 79% 30.31 in 8.0 mi NNE 11.5 mph 20.7 mph N/A   Mostly Cloudy
8:51 PM 41.0 °F 33.5 °F 35.1 °F 79% 30.32 in 8.0 mi NNE 13.8 mph 21.9 mph N/A   Overcast
9:51 PM 41.0 °F 35.2 °F 35.1 °F 79% 30.32 in 8.0 mi NE 9.2 mph 21.9 mph N/A   Overcast
10:51 PM 41.0 °F 34.7 °F 36.0 °F 82% 30.31 in 7.0 mi NE 10.4 mph 19.6 mph N/A   Overcast
11:25 PM 42.1 °F 35.2 °F 36.0 °F 79% 30.30 in 8.0 mi NE 12.7 mph - N/A   Overcast
11:51 PM 42.1 °F 35.7 °F 36.0 °F 79% 30.30 in 8.0 mi NE 11.5 mph 18.4 mph N/A   Overcast